[[{"header":{"parameterUnit":"m.s-1","parameterCategory":1,"la1":30.2991,"la2":30.254,"lo1":-89.0895,"lo2":-89.0444,"dy":0.0017,"dx":0.0017,"nx":28,"ny":28,"refTime":"2025-02-01T03:00:00:Z","depth":0,"parameterNumber":2,"parameterNumberName":"U-component_of_WINDS"},"data":[0,0,0,0,0,0,0,0,0,0,0,0,0,0,0,0,0,0,0,0,0,0,0,0,0,0,0,0,0,0,0,0,0,0,0,0,0,0,0,0,0,0,0,0,0,0,0,0,0,0,0,0,0,0,0,0,0,0,0.6486,0.6487,0,0.6507,0.6508,0.6508,0.6521,0.6521,0.6521,0.6521,0.6542,0.6543,0.6543,0,0,0,0,0,0,0,0,0,0,0,0,0,0.6456,0.6456,0.6486,0.6487,0.6487,0.6507,0.6508,0.6508,0.6521,0.6521,0.6521,0.6521,0.6542,0.6543,0.6543,0,0,0,0,0,0,0,0,0,0,0,0,0,0.6472,0.6456,0.6486,0.6496,0.6497,0.6507,0.6508,0.6508,0.6521,0.6521,0.6521,0.6521,0.6542,0.6542,0.6543,0.6545,0,0,0.6545,0.6546,0,0,0,0,0,0,0,0,0.6471,0.6473,0.6494,0.6495,0.6496,0.6512,0.6505,0.6521,0.6521,0.6512,0.6521,0.6522,0.6532,0.6533,0.6537,0.6546,0.6547,0.6545,0.6546,0.6546,0.6546,0,0,0,0,0,0,0,0.647,0.6472,0.6495,0.6494,0.6496,0.6499,0.6501,0.6508,0.6521,0.6513,0.6514,0.6516,0.6533,0.6536,0.6538,0.6548,0.6545,0.6546,0.6547,0.6547,0.6559,0.6559,0,0,0,0,0,0,0.6467,0.6471,0.6494,0.6495,0.6484,0.6499,0.6502,0.6507,0.6521,0.6523,0.6516,0.6517,0.6535,0.6537,0.6538,0.6541,0.6546,0.6547,0.6547,0.6559,0.6559,0.6559,0,0,0,0,0,0,0.6467,0.6469,0.6493,0.6484,0.6487,0.65,0.6505,0.6507,0.6511,0.6523,0.6526,0.6518,0.6535,0.6537,0.6543,0.6542,0.6547,0.6548,0.6559,0.6559,0.6559,0.6548,0,0,0,0,0,0,0.6466,0.6469,0.647,0.6484,0.6487,0.6498,0.6505,0.6507,0.6512,0.6513,0.6526,0.6528,0.6536,0.6542,0.6544,0.6543,0.6548,0.6559,0.6559,0.6559,0.6548,0.6547,0.6546,0,0,0,0,0,0.6465,0.6467,0.647,0.6473,0.6489,0.6498,0.65,0.6509,0.6512,0.6513,0.6521,0.6527,0.6542,0.6543,0.6545,0.6544,0.6559,0.6559,0.6559,0.6549,0.6547,0.6546,0,0,0,0,0,0,0.6453,0.6468,0.6473,0.6479,0.6487,0.65,0.6502,0.6508,0.6515,0.6516,0.6527,0.6529,0.6534,0.654,0.654,0.6547,0.6551,0.6551,0.6543,0.6542,0.6541,0.6539,0.6549,0,0,0,0,0,0.6451,0.6457,0.647,0.6474,0.6478,0.6489,0.6494,0.65,0.6509,0.6512,0.652,0.6528,0.6535,0.6539,0.6545,0.6549,0.6552,0.655,0.6549,0.6548,0.6548,0.655,0.6549,0.6558,0.6558,0.6558,0,0,0.6447,0.6457,0.646,0.6472,0.6479,0.6485,0.6492,0.6498,0.6502,0.6513,0.6519,0.6525,0.6535,0.6539,0.6542,0.6544,0.6546,0.6548,0.6547,0.6547,0.6549,0.6548,0.6548,0.6557,0.6558,0.6558,0,0,0.6443,0.6451,0.6455,0.6462,0.6472,0.6479,0.648,0.6492,0.6497,0.6503,0.6511,0.6516,0.6527,0.6533,0.6538,0.6535,0.654,0.6537,0.6532,0.6533,0.6532,0.6532,0.653,0.653,0.6537,0.6537,0.6537,0,0.6437,0.6446,0.6456,0.6462,0.6466,0.6476,0.648,0.6486,0.6498,0.6501,0.6503,0.6517,0.6524,0.653,0.6529,0.6533,0.6534,0.6535,0.6532,0.6531,0.6531,0.653,0.6529,0.6536,0.6536,0.6536,0.6536,0,0.6438,0.6444,0.6446,0.6457,0.6462,0.6467,0.6477,0.6481,0.6486,0.6493,0.6499,0.6508,0.6516,0.6518,0.6523,0.6524,0.6525,0.653,0.6534,0.6529,0.6528,0.6528,0.6535,0.6535,0.6536,0.6536,0,0,0.6428,0.6444,0.6444,0.6449,0.6461,0.6466,0.647,0.6478,0.6481,0.6489,0.6492,0.6501,0.6505,0.651,0.6516,0.6518,0.6514,0.6522,0.6522,0.652,0.6515,0.6511,0.651,0.6518,0.6518,0.6518,0.6514,0,0.6425,0.6434,0.6443,0.6448,0.6454,0.6463,0.6466,0.6473,0.648,0.6485,0.6491,0.6497,0.6502,0.6505,0.6507,0.6514,0.6513,0.6515,0.6521,0.6521,0.6518,0.651,0.6506,0.6502,0.6513,0.6513,0.6513,0,0.6424,0.6431,0.6437,0.6447,0.645,0.6453,0.6461,0.6466,0.6474,0.6478,0.6483,0.649,0.6494,0.6498,0.6504,0.6505,0.6508,0.6511,0.6512,0.6512,0.6517,0.651,0.6501,0.65,0.6513,0.6513,0.6513,0,0.6415,0.6426,0.6431,0.6435,0.6447,0.6449,0.6454,0.6463,0.6467,0.6473,0.6476,0.6482,0.6486,0.6491,0.6499,0.6501,0.6504,0.6509,0.6507,0.6507,0.6507,0.6507,0.6498,0.6509,0.6509,0.6509,0.6509,0,0.6411,0.6415,0.6427,0.643,0.6434,0.6443,0.6446,0.6452,0.6459,0.6463,0.6471,0.6474,0.6485,0.6489,0.6495,0.6499,0.65,0.6504,0.6505,0.6503,0.6502,0.6505,0.6505,0.6509,0.6509,0.6509,0.6509,0,0.6402,0.6411,0.6417,0.6428,0.6431,0.6433,0.6442,0.6445,0.6451,0.6455,0.6457,0.6467,0.6472,0.6481,0.6489,0.6493,0.6495,0.6498,0.6492,0.6493,0.6491,0.6491,0.6483,0.6482,0.6495,0.6494,0.6494,0,0.6399,0.6402,0.6413,0.6416,0.6421,0.6426,0.643,0.6439,0.6443,0.6452,0.6453,0.6459,0.6464,0.6473,0.648,0.6486,0.6489,0.6486,0.649,0.6487,0.6488,0.6488,0.6488,0.6485,0.6485,0.6484,0.6484,0,0.6393,0.6397,0.6402,0.6409,0.6414,0.6419,0.6425,0.6427,0.6438,0.6441,0.6447,0.6451,0.6459,0.6464,0.6471,0.6476,0.6482,0.6483,0.6483,0.648,0.6477,0.6478,0.6489,0.6483,0.6483,0.6483,0.6483,0.6483,0.6387,0.6389,0.6397,0.6403,0.6408,0.6413,0.6416,0.6423,0.6427,0.6434,0.6439,0.6444,0.6451,0.6461,0.6466,0.6469,0.6472,0.6472,0.6472,0.6471,0.647,0.6476,0.6471,0.6471,0.6471,0.6471,0.6471,0,0.638,0.6386,0.6391,0.6399,0.6403,0.6408,0.6414,0.6417,0.6422,0.6428,0.6433,0.6439,0.6444,0.6452,0.6457,0.6459,0.6461,0.646,0.646,0.646,0.6468,0.6467,0.6458,0.6458,0.6458,0.6458,0.6458,0.6458,0.6377,0.6381,0.6386,0.6392,0.6398,0.6403,0.6406,0.641,0.6415,0.6421,0.6426,0.6431,0.6437,0.6443,0.6448,0.645,0.6452,0.6449,0.6452,0.6459,0.646,0.6461,0.6461,0.645,0.645,0.6444,0.6444,0.6444]},{"header":{"parameterUnit":"m.s-1","parameterCategory":1,"la1":30.2991,"la2":30.254,"lo1":-89.0895,"lo2":-89.0444,"dy":0.0017,"dx":0.0017,"nx":28,"ny":28,"refTime":"2025-02-01T03:00:00:Z","depth":0,"parameterNumber":3,"parameterNumberName":"V-component_of_WINDS"},"data":[0,0,0,0,0,0,0,0,0,0,0,0,0,0,0,0,0,0,0,0,0,0,0,0,0,0,0,0,0,0,0,0,0,0,0,0,0,0,0,0,0,0,0,0,0,0,0,0,0,0,0,0,0,0,0,0,0,0,0.0648,0.0647,0,0.057,0.0569,0.0568,0.0521,0.0521,0.052,0.052,0.0441,0.0439,0.0437,0,0,0,0,0,0,0,0,0,0,0,0,0,0.0754,0.0752,0.0648,0.0647,0.0646,0.057,0.0569,0.0568,0.0521,0.0521,0.052,0.052,0.0441,0.0439,0.0437,0,0,0,0,0,0,0,0,0,0,0,0,0,0.0695,0.0752,0.0648,0.0613,0.0609,0.057,0.0569,0.0568,0.0521,0.0521,0.052,0.052,0.0442,0.0439,0.0436,0.0426,0,0,0.0428,0.0426,0,0,0,0,0,0,0,0,0.0699,0.0691,0.0619,0.0615,0.0611,0.0555,0.0577,0.052,0.0521,0.0555,0.052,0.052,0.0479,0.0473,0.0459,0.0422,0.0419,0.0427,0.0426,0.0425,0.0424,0,0,0,0,0,0,0,0.0703,0.0695,0.0617,0.0618,0.0613,0.0601,0.0592,0.0566,0.052,0.0552,0.0548,0.0539,0.0477,0.0462,0.0457,0.0418,0.0428,0.0425,0.0423,0.0422,0.0368,0.0368,0,0,0,0,0,0,0.0712,0.0698,0.0619,0.0615,0.0655,0.06,0.059,0.0573,0.052,0.0511,0.054,0.0538,0.0467,0.046,0.0454,0.0438,0.0425,0.0422,0.042,0.0368,0.0368,0.0368,0,0,0,0,0,0,0.0715,0.0706,0.0623,0.0655,0.0644,0.0598,0.058,0.0572,0.0557,0.0511,0.0502,0.0534,0.0467,0.0458,0.0433,0.0435,0.0421,0.0418,0.0367,0.0368,0.0368,0.0406,0,0,0,0,0,0,0.0718,0.0707,0.0703,0.0656,0.0642,0.0603,0.058,0.0571,0.0553,0.0549,0.0503,0.0495,0.0466,0.0438,0.043,0.043,0.0416,0.0367,0.0367,0.0368,0.0405,0.0408,0.0411,0,0,0,0,0,0.0722,0.0717,0.0703,0.0694,0.0636,0.0604,0.0596,0.0562,0.0553,0.0548,0.0518,0.0496,0.0436,0.0436,0.0427,0.0426,0.0367,0.0367,0.0368,0.0403,0.0407,0.0411,0,0,0,0,0,0,0.0766,0.071,0.0694,0.0673,0.0644,0.0596,0.0589,0.0568,0.054,0.0538,0.0497,0.0487,0.0466,0.0444,0.0445,0.0413,0.0399,0.0398,0.0429,0.0432,0.0435,0.0441,0.0413,0,0,0,0,0,0.0773,0.0751,0.0704,0.069,0.0676,0.0635,0.062,0.0596,0.0564,0.0551,0.0519,0.0488,0.0462,0.0446,0.0419,0.0401,0.039,0.0396,0.0399,0.0402,0.0402,0.039,0.0392,0.037,0.037,0.037,0,0,0.0787,0.0754,0.0743,0.0698,0.0672,0.065,0.0625,0.0603,0.0586,0.0547,0.0522,0.0498,0.0461,0.0439,0.0428,0.042,0.0405,0.0403,0.0405,0.0403,0.0391,0.0393,0.0395,0.037,0.037,0.037,0,0,0.0803,0.0776,0.0761,0.0736,0.0697,0.067,0.0666,0.0621,0.0604,0.0577,0.0548,0.0527,0.0483,0.0458,0.0439,0.0444,0.0423,0.0437,0.0453,0.0442,0.0443,0.0445,0.0446,0.0447,0.0436,0.0437,0.0437,0,0.0826,0.0792,0.0756,0.0736,0.0717,0.068,0.0665,0.0642,0.0597,0.0584,0.0575,0.0519,0.0491,0.0463,0.0465,0.0451,0.0445,0.0442,0.0446,0.0447,0.0448,0.0449,0.0449,0.0438,0.0438,0.0438,0.0438,0,0.0822,0.0799,0.0791,0.0748,0.0728,0.0711,0.0672,0.0656,0.0635,0.0608,0.0582,0.0547,0.0513,0.0505,0.0483,0.0473,0.0469,0.0454,0.0438,0.0452,0.0452,0.0453,0.0441,0.0441,0.044,0.044,0,0,0.0862,0.08,0.0798,0.0777,0.0732,0.0713,0.0694,0.066,0.0647,0.0617,0.0599,0.0562,0.0548,0.0527,0.0502,0.0492,0.0498,0.0478,0.0476,0.0483,0.0484,0.0496,0.0497,0.0484,0.0484,0.0484,0.0487,0,0.0871,0.0834,0.0801,0.0777,0.0755,0.072,0.0703,0.0673,0.0648,0.0625,0.0597,0.0571,0.0554,0.0541,0.053,0.05,0.0498,0.0499,0.0467,0.0466,0.0477,0.0497,0.051,0.0515,0.0487,0.0487,0.0487,0,0.0876,0.0847,0.082,0.0776,0.0766,0.0751,0.0717,0.0696,0.0661,0.0644,0.062,0.0594,0.0571,0.0559,0.0527,0.0528,0.0513,0.0496,0.0495,0.0491,0.0477,0.0493,0.0516,0.0517,0.0487,0.0487,0.0487,0,0.0908,0.0862,0.084,0.0824,0.0772,0.0763,0.0741,0.0705,0.0687,0.0658,0.0645,0.0613,0.0596,0.0572,0.0538,0.0532,0.0509,0.0494,0.0494,0.0495,0.049,0.0491,0.0511,0.0481,0.0481,0.0481,0.0481,0,0.0921,0.0906,0.0854,0.084,0.0822,0.0784,0.0767,0.0742,0.0711,0.0692,0.0659,0.0642,0.0598,0.0575,0.0549,0.0526,0.0518,0.0503,0.0496,0.0506,0.0508,0.0495,0.0494,0.0481,0.0481,0.0481,0.0481,0,0.0954,0.0918,0.0892,0.0845,0.0833,0.0821,0.0781,0.0766,0.0739,0.0715,0.0707,0.0664,0.0636,0.06,0.0559,0.0541,0.0521,0.0511,0.0533,0.0529,0.0531,0.0531,0.0543,0.0542,0.0514,0.0514,0.0515,0,0.0964,0.0952,0.0903,0.0888,0.0867,0.0843,0.0824,0.0786,0.0768,0.0727,0.0717,0.0686,0.0659,0.0614,0.058,0.0548,0.0537,0.0543,0.0532,0.0542,0.0536,0.0538,0.0536,0.0546,0.0546,0.0547,0.0547,0,0.0986,0.0969,0.0943,0.0911,0.089,0.0862,0.0834,0.0823,0.0779,0.076,0.073,0.071,0.0668,0.0638,0.0602,0.0579,0.0556,0.0551,0.0549,0.0559,0.0572,0.0565,0.0541,0.0551,0.055,0.055,0.055,0.055,0.1008,0.0995,0.0959,0.0931,0.0905,0.0879,0.0863,0.0834,0.0808,0.0772,0.0751,0.0722,0.0686,0.0636,0.0614,0.059,0.0582,0.0579,0.0578,0.0578,0.0581,0.0576,0.0584,0.0583,0.0583,0.0583,0.0583,0,0.1028,0.1003,0.0978,0.0938,0.0916,0.0896,0.0864,0.0846,0.0821,0.079,0.0764,0.073,0.07,0.0663,0.063,0.0618,0.0607,0.0611,0.0611,0.0606,0.0591,0.0596,0.0621,0.0621,0.0621,0.0621,0.0621,0.0621,0.1036,0.1013,0.0992,0.0955,0.093,0.0901,0.0884,0.086,0.0835,0.0798,0.0773,0.0749,0.0715,0.068,0.0651,0.0641,0.063,0.0638,0.0624,0.0611,0.0607,0.0604,0.0608,0.0636,0.0636,0.0641,0.0641,0.0641]}]]